GW0092 Weather Reports


time (UTC)temp
C
wind
direction
speed
KPH
gust
KPH
rain 1hr
cm
rain 24hr
cm
rain mn
cm
humidity
%
barometer
mb
20260904030103 25 0 0.0 0.0 0.00 0.00 0.00 99 1013.8
20260904024601 25 0 0.0 0.0 0.00 0.00 0.00 99 1013.9
20260904023103 25 0 0.0 0.0 0.00 0.00 0.00 99 1013.9
20260904021602 25 0 0.0 0.0 0.00 0.00 0.00 99 1013.9
20260904020101 25 0 0.0 0.0 0.00 0.00 0.00 99 1014.3
20260904014600 25 0 0.0 0.0 0.00 0.00 0.00 99 1014.5
20260904013102 25 0 0.0 0.0 0.00 0.00 0.00 99 1014.8
20260904011613 25 0 0.0 0.0 0.00 0.00 0.00 99 1015.1
20260904010108 25 0 0.0 0.0 0.00 0.00 0.00 98 1015.1
20260904004603 25 0 0.0 0.0 0.00 0.00 0.00 98 1014.9
20260904003102 26 0 0.0 0.0 0.00 0.00 0.00 97 1014.8
20260904001558 26 0 0.0 0.0 0.00 0.00 0.00 96 1014.6
20260903234604 26 0 0.0 0.0 0.00 0.00 0.00 95 1014.1
20260903233102 27 0 0.0 0.0 0.00 0.00 0.00 94 1014.0
20260903231601 27 0 0.0 0.0 0.00 0.00 0.00 93 1014.1
20260903230104 27 0 0.0 0.0 0.00 0.00 0.00 92 1013.9
20260903224602 28 0 0.0 0.0 0.00 0.00 0.00 90 1013.9
20260903223058 28 0 0.0 1.6 0.00 0.00 0.00 88 1013.9
20260903221604 29 0 0.0 1.6 0.00 0.00 0.00 86 1014.1
20260903220123 29 0 1.6 8.0 0.00 0.00 0.00 85 1014.1
20260903214600 30 78 0.0 8.0 0.00 0.00 0.00 84 1014.2
20260903213101 30 0 0.0 6.4 0.00 0.00 0.00 82 1014.3
20260903211558 31 321 1.6 8.0 0.00 0.00 0.00 81 1014.4
20260903210109 31 8 0.0 8.0 0.00 0.00 0.00 81 1014.4
20260903204600 31 18 3.2 8.0 0.00 0.00 0.00 81 1014.6
20260903203130 30 47 1.6 11.3 0.00 0.00 0.00 80 1014.6
20260903201606 31 62 1.6 9.7 0.00 0.00 0.00 80 1014.9
20260903200104 31 0 0.0 6.4 0.00 0.00 0.00 81 1014.7
20260903194602 30 304 1.6 11.3 0.00 0.00 0.00 81 1015.0
20260903193101 30 294 3.2 9.7 0.00 0.00 0.00 83 1015.1
20260903191604 29 0 1.6 8.0 0.00 0.00 0.00 86 1015.2
20260903184601 29 0 0.0 6.4 0.00 0.00 0.00 87 1015.6
20260903183102 29 343 1.6 4.8 0.00 0.00 0.00 86 1015.7
20260903181600 29 0 1.6 6.4 0.00 0.00 0.00 87 1016.0
20260903180107 28 123 0.0 1.6 0.00 0.00 0.00 89 1015.8
20260903174609 28 0 0.0 1.6 0.00 0.00 0.00 90 1016.1
20260903173101 28 0 0.0 4.8 0.00 0.00 0.00 87 1015.9
20260903171615 29 150 1.6 3.2 0.00 0.00 0.00 87 1016.2
20260903170107 29 0 0.0 6.4 0.00 0.00 0.00 86 1016.2
20260903164637 29 70 0.0 8.0 0.00 0.00 0.00 83 1016.5
20260903163103 29 0 1.6 4.8 0.00 0.00 0.00 88 1016.7
20260903161608 28 86 0.0 6.4 0.00 0.00 0.00 84 1016.8
20260903160105 28 77 1.6 6.4 0.00 0.00 0.00 86 1017.1
20260903154602 28 143 1.6 4.8 0.00 0.00 0.00 89 1017.3
20260903153126 27 93 0.0 8.0 0.00 0.00 0.00 90 1017.0
20260903151601 27 0 0.0 4.8 0.00 0.00 0.00 90 1016.8
20260903150101 27 131 3.2 8.0 0.00 0.00 0.00 91 1016.9
20260903144606 27 110 1.6 8.0 0.00 0.00 0.00 91 1017.0
20260903143105 26 127 1.6 6.4 0.00 0.00 0.00 95 1016.8
20260903141602 26 117 0.0 4.8 0.00 0.00 0.00 97 1017.0
20260903140105 25 248 0.0 3.2 0.00 0.00 0.00 99 1017.2
20260903134611 25 129 0.0 3.2 0.00 0.00 0.00 100 1017.5
20260903133103 24 319 0.0 1.6 0.00 0.00 0.00 100 1017.8
20260903131606 23 0 0.0 1.6 0.00 0.00 0.00 100 1017.8
20260903124610 23 0 0.0 1.6 0.00 0.00 0.00 100 1018.6
20260903123104 23 0 0.0 1.6 0.00 0.00 0.00 100 1018.6
20260903121615 22 0 0.0 0.0 0.00 0.00 0.00 100 1018.5
20260903120110 22 0 0.0 0.0 0.00 0.00 0.00 100 1018.6
20260903114601 22 0 0.0 0.0 0.00 0.00 0.00 100 1018.4
20260903113144 22 0 0.0 1.6 0.00 0.00 0.00 100 1018.2
20260903111602 22 0 0.0 1.6 0.00 0.00 0.00 100 1018.0
20260903110105 22 0 0.0 1.6 0.00 0.00 0.00 100 1017.7
20260903104611 21 0 0.0 1.6 0.00 0.00 0.00 100 1017.7
20260903103106 21 0 0.0 1.6 0.00 0.00 0.00 100 1017.5
20260903101603 22 0 0.0 0.0 0.00 0.00 0.00 100 1017.2
20260903094601 22 0 0.0 1.6 0.00 0.00 0.00 100 1017.2
20260903093106 22 0 0.0 0.0 0.00 0.00 0.00 100 1017.3
20260903091602 22 0 0.0 1.6 0.00 0.00 0.00 100 1017.3
20260903090058 22 285 0.0 1.6 0.00 0.00 0.00 100 1017.7
20260903084609 22 335 1.6 4.8 0.00 0.00 0.00 100 1017.9
20260903083105 21 295 0.0 3.2 0.00 0.00 0.00 100 1017.8
20260903081601 21 0 0.0 0.0 0.00 0.00 0.00 100 1017.0
20260903074603 21 0 0.0 0.0 0.00 0.08 0.00 100 1016.7
20260903073106 21 0 0.0 0.0 0.00 0.08 0.00 100 1016.6
20260903071613 22 0 0.0 0.0 0.00 0.08 0.00 100 1016.7
20260903064603 22 0 0.0 0.0 0.00 0.20 0.00 100 1016.4
20260903063103 22 0 0.0 0.0 0.00 0.20 0.00 100 1016.6
20260903061606 22 0 0.0 0.0 0.00 0.20 0.00 100 1016.8
20260903060101 22 0 0.0 0.0 0.00 0.20 0.00 100 1017.2
20260903054605 22 0 0.0 0.0 0.00 0.94 0.00 100 1017.2
20260903053102 22 0 0.0 0.0 0.00 0.94 0.00 100 1017.3
20260903051617 22 0 0.0 1.6 0.00 0.94 0.00 99 1017.7
20260903050115 22 0 0.0 0.0 0.00 0.94 0.00 100 1017.7
20260903044602 22 0 0.0 0.0 0.00 0.94 0.00 99 1018.0
20260903043208 22 0 0.0 0.0 0.00 0.94 0.00 100 1017.9
20260903041555 22 0 0.0 0.0 0.00 0.94 0.00 99 1017.7
20260903040106 22 0 0.0 0.0 0.00 0.94 0.00 100 1017.5
20260903034559 22 0 0.0 0.0 0.00 0.94 0.94 100 1017.6
20260903033057 22 0 0.0 0.0 0.00 0.94 0.94 99 1017.6
20260903031604 22 0 0.0 0.0 0.00 0.94 0.94 100 1017.7